Location: Croydon
(51.3762°N, 0.0982°W)
Time: 04:44:00
(UTC+00:00)

ZACube-1 - Visible Passes

Search period start: 14 November 2019 00:00
Search period end: 24 November 2019 00:00
Orbit: 585 x 666 km, 97.6° (Epoch: 13 November)

Date Brightness Start Highest point End Pass type
(mag) Time Alt. Az. Time Alt. Az. Time Alt. Az.
14 Nov ? 05:13:14 10° NE 05:16:12 17° E 05:19:08 10° SE visible
14 Nov ? 17:48:39 10° S 17:53:02 49° W 17:57:30 10° NNW visible
15 Nov ? 05:31:40 10° NE 05:35:25 24° E 05:39:06 10° SSE visible
15 Nov ? 18:08:02 10° SSW 18:12:08 33° W 18:16:18 10° NNW visible
16 Nov ? 05:50:22 10° NNE 05:54:34 36° E 05:58:41 10° SSE visible
16 Nov ? 16:50:23 10° SE 16:54:46 51° ENE 16:59:14 10° N visible
16 Nov ? 18:27:41 10° SW 18:31:18 23° W 18:34:58 10° NW visible
17 Nov ? 06:09:12 10° NNE 06:13:40 53° E 06:18:02 10° S visible
17 Nov ? 17:09:12 10° SSE 17:13:43 75° ENE 17:18:19 10° N visible
17 Nov ? 18:47:44 10° SW 18:50:32 16° W 18:53:21 10° NW visible
18 Nov ? 04:54:21 10° ENE 04:55:40 11° E 04:56:57 10° E visible
18 Nov ? 06:28:08 10° NNE 06:32:43 80° ESE 06:37:10 10° S visible
18 Nov ? 17:28:11 10° S 17:32:43 75° WSW 17:37:20 10° NNW visible
18 Nov ? 19:08:48 10° W 19:09:48 11° W 19:10:48 10° WNW visible
19 Nov ? 05:12:02 10° NE 05:14:55 17° E 05:17:46 10° SE visible
19 Nov ? 06:47:10 10° N 06:51:42 70° WNW 06:56:07 10° SSW visible
19 Nov ? 17:47:21 10° S 17:51:46 50° W 17:56:16 10° NNW visible
20 Nov ? 05:30:28 10° NE 05:34:09 24° E 05:37:44 10° SE visible
20 Nov ? 18:06:44 10° SSW 18:10:53 34° W 18:15:04 10° NNW visible
21 Nov ? 05:49:09 10° NNE 05:53:18 35° E 05:57:20 10° SSE visible
21 Nov ? 16:49:06 10° SE 16:53:31 51° ENE 16:57:59 10° N visible
21 Nov ? 18:26:23 10° SW 18:30:02 23° W 18:33:44 10° NW visible
22 Nov ? 06:07:58 10° NNE 06:12:24 52° E 06:16:41 10° S visible
22 Nov ? 17:07:54 10° SSE 17:12:28 75° ENE 17:17:04 10° N visible
22 Nov ? 18:46:24 10° SW 18:49:15 16° W 18:52:07 10° NW visible
23 Nov ? 04:53:18 10° ENE 04:54:22 11° E 04:55:24 10° E visible
23 Nov ? 06:26:55 10° NNE 06:31:26 79° ESE 06:35:48 10° S visible
23 Nov ? 17:26:53 10° S 17:31:27 75° WSW 17:36:04 10° NNW visible
23 Nov ? 19:07:23 10° W 19:08:31 11° W 19:09:39 10° WNW visible
